[[{"header":{"parameterUnit":"m.s-1","parameterCategory":1,"la1":30.2991,"la2":30.254,"lo1":-89.0895,"lo2":-89.0444,"dy":0.0017,"dx":0.0017,"nx":28,"ny":28,"refTime":"2024-09-30T03:00:00:Z","depth":0,"parameterNumber":2,"parameterNumberName":"U-component_of_WINDS"},"data":[0,0,0,0,0,0,0,0,0,0,0,0,0,0,0,0,0,0,0,0,0,0,0,0,0,0,0,0,0,0,0,0,0,0,0,0,0,0,0,0,0,0,0,0,0,0,0,0,0,0,0,0,0,0,0,0,0,0,0.3209,0.321,0,0.3264,0.3264,0.3265,0.33,0.33,0.33,0.33,0.3358,0.3359,0.3361,0,0,0,0,0,0,0,0,0,0,0,0,0,0.3137,0.3138,0.3209,0.321,0.321,0.3263,0.3264,0.3265,0.33,0.33,0.33,0.3301,0.3358,0.3359,0.3361,0,0,0,0,0,0,0,0,0,0,0,0,0,0.3178,0.3139,0.3209,0.3234,0.3237,0.3263,0.3264,0.3265,0.33,0.33,0.33,0.3301,0.3357,0.3359,0.3361,0.3367,0,0,0.3367,0.3368,0,0,0,0,0,0,0,0,0.3175,0.318,0.323,0.3232,0.3236,0.3275,0.326,0.3299,0.33,0.3276,0.33,0.3301,0.333,0.3335,0.3344,0.337,0.3372,0.3367,0.3369,0.3369,0.337,0,0,0,0,0,0,0,0.3173,0.3178,0.3231,0.323,0.3234,0.3243,0.325,0.3268,0.3301,0.3278,0.3281,0.3287,0.3332,0.3342,0.3346,0.3373,0.3367,0.3369,0.337,0.3371,0.3408,0.3408,0,0,0,0,0,0,0.3165,0.3176,0.3229,0.3232,0.3206,0.3244,0.3251,0.3262,0.3301,0.3307,0.3286,0.3288,0.3339,0.3343,0.3348,0.3359,0.3369,0.3371,0.3372,0.3409,0.3408,0.3408,0,0,0,0,0,0,0.3164,0.317,0.3227,0.3205,0.3213,0.3245,0.3257,0.3263,0.3273,0.3307,0.3313,0.329,0.3339,0.3345,0.3362,0.3361,0.3372,0.3374,0.3409,0.3408,0.3408,0.338,0,0,0,0,0,0,0.3162,0.3169,0.3171,0.3204,0.3214,0.3239,0.3257,0.3264,0.3276,0.3279,0.3312,0.3318,0.334,0.3359,0.3364,0.3364,0.3376,0.3409,0.3409,0.3408,0.3381,0.3379,0.3377,0,0,0,0,0,0.3159,0.3161,0.3171,0.3177,0.3217,0.3239,0.3245,0.3269,0.3276,0.3279,0.3301,0.3317,0.336,0.3361,0.3367,0.3367,0.3409,0.3409,0.3408,0.3382,0.3379,0.3377,0,0,0,0,0,0,0.3127,0.3166,0.3177,0.319,0.3211,0.3245,0.325,0.3265,0.3284,0.3286,0.3316,0.3323,0.3338,0.3354,0.3354,0.3376,0.3387,0.3388,0.3365,0.3362,0.336,0.3356,0.3377,0,0,0,0,0,0.3122,0.3136,0.3169,0.3178,0.3187,0.3216,0.3227,0.3244,0.3267,0.3276,0.3299,0.3322,0.334,0.3352,0.3371,0.3383,0.3392,0.3387,0.3385,0.3383,0.3383,0.3392,0.3391,0.3406,0.3406,0.3406,0,0,0.3111,0.3133,0.3141,0.3172,0.319,0.3205,0.3224,0.3239,0.3251,0.3279,0.3297,0.3314,0.3341,0.3356,0.3364,0.337,0.3381,0.3382,0.338,0.3382,0.3392,0.339,0.3389,0.3406,0.3406,0.3406,0,0,0.3098,0.3116,0.3126,0.3144,0.3171,0.319,0.3193,0.3224,0.3237,0.3255,0.3277,0.3292,0.3323,0.3342,0.3356,0.3351,0.3367,0.3356,0.3345,0.3353,0.3352,0.3351,0.3351,0.335,0.3357,0.3356,0.3356,0,0.3081,0.3104,0.3129,0.3143,0.3157,0.3182,0.3193,0.3209,0.3241,0.325,0.3257,0.3297,0.3317,0.3338,0.3337,0.3346,0.3351,0.3353,0.335,0.335,0.3349,0.3349,0.3349,0.3355,0.3355,0.3355,0.3356,0,0.3083,0.3098,0.3103,0.3133,0.3147,0.3159,0.3187,0.3198,0.3214,0.3233,0.3252,0.3276,0.3301,0.3307,0.3322,0.333,0.3333,0.3344,0.3356,0.3346,0.3346,0.3347,0.3353,0.3354,0.3354,0.3354,0,0,0.3053,0.3097,0.3098,0.3113,0.3145,0.3158,0.3171,0.3195,0.3205,0.3226,0.3239,0.3265,0.3276,0.3292,0.3309,0.3317,0.3313,0.3327,0.3328,0.3325,0.3324,0.3317,0.3316,0.3323,0.3324,0.3324,0.3323,0,0.3046,0.3072,0.3095,0.3112,0.3128,0.3152,0.3165,0.3186,0.3204,0.3221,0.3241,0.3259,0.3271,0.3281,0.3289,0.3312,0.3314,0.3312,0.3337,0.3338,0.3331,0.3316,0.3308,0.3306,0.3323,0.3323,0.3323,0,0.3042,0.3062,0.3081,0.3113,0.312,0.3131,0.3155,0.317,0.3195,0.3208,0.3225,0.3244,0.3261,0.3269,0.3294,0.3292,0.3304,0.3316,0.3317,0.3321,0.333,0.3321,0.3306,0.3306,0.3323,0.3323,0.3323,0,0.302,0.3052,0.3068,0.3079,0.3116,0.3123,0.3138,0.3164,0.3177,0.3199,0.3208,0.3231,0.3244,0.3262,0.3286,0.329,0.3308,0.3319,0.332,0.332,0.3324,0.3324,0.3311,0.3329,0.3329,0.3329,0.3329,0,0.3011,0.3022,0.3058,0.3068,0.3082,0.3108,0.3121,0.3139,0.3161,0.3176,0.3198,0.3211,0.3243,0.326,0.3279,0.3297,0.3302,0.3314,0.3319,0.3313,0.3311,0.3322,0.3323,0.3329,0.3329,0.3329,0.3329,0,0.2989,0.3014,0.3033,0.3066,0.3075,0.3083,0.3112,0.3123,0.3142,0.316,0.3166,0.3196,0.3218,0.3244,0.3274,0.3287,0.3303,0.331,0.3295,0.3298,0.3298,0.3298,0.3293,0.3294,0.331,0.331,0.331,0,0.2983,0.2992,0.3026,0.3037,0.3052,0.3069,0.3083,0.311,0.3123,0.3153,0.316,0.3183,0.3203,0.3237,0.3262,0.3285,0.3294,0.329,0.3298,0.3291,0.3295,0.3295,0.3297,0.3289,0.3289,0.3288,0.3288,0,0.2969,0.2981,0.2999,0.3022,0.3038,0.3057,0.3078,0.3086,0.3117,0.3131,0.3153,0.3168,0.3199,0.3222,0.3248,0.3265,0.3282,0.3285,0.3287,0.3281,0.3272,0.3278,0.3291,0.3286,0.3286,0.3286,0.3286,0.3286,0.2956,0.2965,0.2991,0.3011,0.3029,0.3048,0.306,0.3081,0.3099,0.3126,0.3141,0.3163,0.3188,0.3226,0.3242,0.326,0.3266,0.3268,0.3269,0.327,0.3268,0.3268,0.3265,0.3265,0.3265,0.3265,0.3265,0,0.2944,0.2962,0.298,0.3008,0.3024,0.3038,0.3061,0.3074,0.3093,0.3115,0.3134,0.316,0.3183,0.321,0.3234,0.3243,0.3252,0.3249,0.3249,0.3253,0.3261,0.3257,0.3242,0.3242,0.3242,0.3242,0.3242,0.3242,0.294,0.2958,0.2972,0.2999,0.3017,0.3038,0.3051,0.3068,0.3087,0.3114,0.3133,0.315,0.3175,0.3201,0.3223,0.323,0.3239,0.3234,0.3244,0.325,0.3253,0.3254,0.3251,0.3235,0.3235,0.3235,0.3235,0.3235]},{"header":{"parameterUnit":"m.s-1","parameterCategory":1,"la1":30.2991,"la2":30.254,"lo1":-89.0895,"lo2":-89.0444,"dy":0.0017,"dx":0.0017,"nx":28,"ny":28,"refTime":"2024-09-30T03:00:00:Z","depth":0,"parameterNumber":3,"parameterNumberName":"V-component_of_WINDS"},"data":[0,0,0,0,0,0,0,0,0,0,0,0,0,0,0,0,0,0,0,0,0,0,0,0,0,0,0,0,0,0,0,0,0,0,0,0,0,0,0,0,0,0,0,0,0,0,0,0,0,0,0,0,0,0,0,0,0,0,2.2227,2.2227,0,2.2248,2.2248,2.2248,2.2285,2.2285,2.2286,2.2287,2.2306,2.2305,2.2305,0,0,0,0,0,0,0,0,0,0,0,0,0,2.2218,2.2218,2.2227,2.2227,2.2228,2.2248,2.2248,2.2248,2.2285,2.2286,2.2286,2.2287,2.2306,2.2305,2.2305,0,0,0,0,0,0,0,0,0,0,0,0,0,2.2228,2.2218,2.2227,2.2248,2.225,2.2247,2.2248,2.2248,2.2284,2.2286,2.2287,2.2288,2.2306,2.2305,2.2305,2.2282,0,0,2.2304,2.2304,0,0,0,0,0,0,0,0,2.2228,2.2229,2.2245,2.2247,2.2249,2.2265,2.2252,2.226,2.2284,2.2271,2.2287,2.2288,2.2291,2.2292,2.2293,2.2283,2.2284,2.2304,2.2304,2.2304,2.2304,0,0,0,0,0,0,0,2.2227,2.2228,2.2235,2.2245,2.2248,2.2256,2.2259,2.2253,2.2275,2.2273,2.2275,2.2277,2.2292,2.2294,2.2294,2.2284,2.2304,2.2304,2.2304,2.2304,2.2257,2.2256,0,0,0,0,0,0,2.2223,2.2227,2.2234,2.2236,2.2241,2.2256,2.2259,2.2259,2.2275,2.2279,2.2276,2.2279,2.2293,2.2294,2.2295,2.2269,2.2304,2.2304,2.2304,2.2258,2.2256,2.2255,0,0,0,0,0,0,2.2223,2.2224,2.2234,2.2232,2.2234,2.2255,2.2254,2.2258,2.226,2.2278,2.2282,2.2274,2.2294,2.2295,2.2285,2.227,2.2304,2.2304,2.2259,2.2257,2.2256,2.2217,0,0,0,0,0,0,2.2223,2.2223,2.2215,2.2232,2.2234,2.2224,2.2254,2.2258,2.226,2.2263,2.2277,2.228,2.2295,2.2286,2.2285,2.2271,2.2303,2.226,2.2258,2.2256,2.222,2.2215,2.221,0,0,0,0,0,2.2222,2.2203,2.2215,2.2215,2.2225,2.2223,2.2224,2.2243,2.2258,2.225,2.2262,2.2279,2.2272,2.2284,2.2284,2.2269,2.2261,2.2259,2.2256,2.2222,2.2216,2.221,0,0,0,0,0,0,2.2183,2.2206,2.2219,2.2205,2.2212,2.2229,2.222,2.2236,2.2238,2.2241,2.2264,2.2267,2.2253,2.2261,2.2274,2.2248,2.227,2.2267,2.2244,2.2238,2.2233,2.2231,2.2303,0,0,0,0,0,2.2173,2.2171,2.2191,2.2176,2.2179,2.2199,2.2199,2.2213,2.2221,2.2224,2.2235,2.2242,2.2241,2.224,2.224,2.2222,2.2225,2.2211,2.2206,2.2202,2.2199,2.2189,2.2184,2.2247,2.2247,2.2247,0,0,2.2152,2.2164,2.2161,2.2169,2.2176,2.2172,2.2201,2.2196,2.2194,2.2223,2.2214,2.2223,2.2232,2.2217,2.2211,2.2223,2.2183,2.2199,2.2195,2.2195,2.2186,2.218,2.2175,2.2245,2.2246,2.2246,0,0,2.2112,2.2121,2.211,2.2117,2.2128,2.2141,2.2138,2.2154,2.2161,2.2153,2.2175,2.2172,2.217,2.2176,2.2178,2.214,2.2157,2.214,2.2113,2.2103,2.2098,2.2094,2.208,2.2075,2.2137,2.2137,2.2137,0,2.2084,2.208,2.2102,2.2096,2.2098,2.2126,2.2115,2.212,2.213,2.2131,2.2144,2.2142,2.215,2.2137,2.2128,2.213,2.2127,2.2138,2.2098,2.2093,2.209,2.2076,2.2071,2.2135,2.2135,2.2135,2.2136,0,2.2045,2.2042,2.2032,2.2042,2.2043,2.2035,2.2054,2.2053,2.2067,2.2079,2.207,2.2081,2.2084,2.2082,2.2095,2.2071,2.2078,2.2094,2.2116,2.2081,2.2069,2.2064,2.2132,2.2133,2.2133,2.2134,0,0,2.198,2.2003,2.1998,2.2003,2.2018,2.2016,2.2008,2.2012,2.201,2.2016,2.201,2.2008,2.2023,2.2026,2.204,2.2032,2.2001,2.2049,2.205,2.2039,2.1974,2.1961,2.1955,2.2012,2.2011,2.2011,2.1973,0,2.1942,2.1931,2.1951,2.1934,2.1932,2.1958,2.1952,2.1959,2.197,2.1969,2.1981,2.1979,2.2,2.2001,2.1995,2.2006,2.1988,2.2009,2.2006,2.2005,2.2002,2.1949,2.1936,2.19,2.1969,2.1968,2.1967,0,2.1896,2.1901,2.1885,2.19,2.19,2.1894,2.1899,2.1898,2.1907,2.1915,2.1919,2.1936,2.1929,2.1951,2.1942,2.1956,2.1955,2.1961,2.196,2.196,2.1984,2.1946,2.1889,2.1883,2.196,2.1961,2.1961,0,2.1849,2.1852,2.1842,2.1846,2.1864,2.1859,2.1866,2.1877,2.1878,2.1882,2.1883,2.1886,2.1887,2.1889,2.1906,2.1921,2.1894,2.1918,2.19,2.19,2.1893,2.1893,2.1833,2.1894,2.1894,2.1894,2.1894,0,2.1804,2.1793,2.1822,2.1816,2.1804,2.1827,2.1814,2.1824,2.1833,2.1829,2.1853,2.1848,2.1872,2.187,2.1884,2.1873,2.1874,2.188,2.1883,2.1877,2.1876,2.1877,2.1879,2.1893,2.1893,2.1893,2.1894,0,2.1749,2.1768,2.176,2.1778,2.1783,2.1773,2.1788,2.1783,2.1796,2.1791,2.1791,2.1811,2.181,2.1827,2.183,2.1839,2.1822,2.183,2.1819,2.1821,2.1803,2.1804,2.1741,2.1733,2.1799,2.1798,2.1798,0,2.1719,2.1711,2.1729,2.1729,2.1735,2.1734,2.1735,2.1757,2.1758,2.1768,2.1762,2.1763,2.1765,2.1762,2.1776,2.1777,2.1786,2.1763,2.1786,2.178,2.1784,2.1784,2.1784,2.1758,2.1757,2.1757,2.1756,0,2.1663,2.1673,2.1675,2.1679,2.1681,2.1685,2.1692,2.169,2.1714,2.1713,2.1713,2.1714,2.1717,2.1717,2.1722,2.1729,2.1746,2.1749,2.1745,2.1738,2.1732,2.1735,2.1805,2.175,2.1751,2.1751,2.1752,2.1752,2.1619,2.1614,2.1625,2.1626,2.1634,2.1639,2.1635,2.1648,2.1648,2.1653,2.1666,2.1663,2.1673,2.1681,2.1686,2.1684,2.1695,2.1689,2.1687,2.1686,2.1682,2.1733,2.1685,2.1685,2.1685,2.1685,2.1686,0,2.1564,2.1573,2.1574,2.1582,2.1583,2.1601,2.1608,2.1607,2.1605,2.1613,2.1615,2.1614,2.1615,2.1629,2.1632,2.1627,2.1635,2.1627,2.1627,2.1628,2.1672,2.1675,2.162,2.162,2.162,2.162,2.162,2.1621,2.1535,2.1527,2.1538,2.1533,2.1542,2.154,2.1543,2.1548,2.1555,2.1553,2.1554,2.1564,2.1575,2.1578,2.1579,2.1583,2.1583,2.1572,2.1578,2.1619,2.1625,2.1631,2.1634,2.1571,2.1571,2.1534,2.1534,2.1534]}]]